Location: DeLan Observatory
(46.9670°N, 70.5500°W)
Time: 04:01:21
(UTC-04:00)

ISS - Visible Passes

Search period start: 26 March 2019 00:00
Search period end: 05 April 2019 00:00
Orbit: 408 x 411 km, 51.6° (Epoch: 26 March)

Date Brightness Start Highest point End Pass type
(mag) Time Alt. Az. Time Alt. Az. Time Alt. Az.
26 Mar -2.8 20:39:37 10° W 20:42:48 42° NNW 20:44:18 25° NE visible
26 Mar -0.4 22:16:43 10° WNW 22:17:04 12° WNW 22:17:04 12° WNW visible
27 Mar -3.1 19:48:46 10° W 19:52:01 54° NNW 19:55:17 10° ENE visible
27 Mar -2.2 21:25:56 10° WNW 21:28:31 32° NNW 21:28:31 32° NNW visible
28 Mar -2.5 20:35:06 10° WNW 20:38:11 35° N 20:39:54 20° NE visible
28 Mar -0.7 22:11:58 10° WNW 22:12:39 15° WNW 22:12:39 15° WNW visible
29 Mar -2.6 19:44:13 10° W 19:47:20 39° N 19:50:29 10° ENE visible
29 Mar -2.6 21:21:13 10° WNW 21:23:59 38° N 21:23:59 38° N visible
30 Mar -2.6 20:30:27 10° WNW 20:33:32 35° N 20:35:17 20° ENE visible
30 Mar -0.9 22:07:06 10° WNW 22:08:02 18° WNW 22:08:02 18° WNW visible
31 Mar -2.5 19:39:36 10° WNW 19:42:41 34° N 19:45:45 10° ENE visible
31 Mar -3.2 21:16:22 10° WNW 21:19:19 54° N 21:19:19 54° N visible
01 Apr -3.0 20:25:37 10° WNW 20:28:49 44° NNE 20:30:35 22° ENE visible
01 Apr -1.1 22:02:15 10° WNW 22:03:20 19° WNW 22:03:20 19° WNW visible
02 Apr -3.8 21:11:26 10° WNW 21:14:37 77° WSW 21:14:37 77° WSW visible
03 Apr -3.7 20:20:40 10° WNW 20:23:59 69° NNE 20:25:54 23° ESE visible
03 Apr -1.1 21:57:37 10° W 21:58:39 16° W 21:58:39 16° W visible
04 Apr -3.0 21:06:35 10° WNW 21:09:41 38° SW 21:09:58 37° SSW visible
